DLH2YA EPWA-EDDF

Flight info

Callsign DLH2YA
Flight time N/A
Altitude 38000
Route LOLSI DCT DIBLO DCT INDIG DCT KORUP DCT SULED DCT ROBEL T178 KERAX KERAX5A
Aircraft A319/M-SDE2E3FGIJ1LORWXYZ/HB1

Departure

Time 2026-05-05 20:23
Airport Warsaw Chopin Airport (EPWA)

Arrival

Time N/A
Airport Frankfurt Main Airport (EDDF)
Time Latitude Longitude Altitude Speed Heading
2026-05-05 19:58 52.17095 20.97068 336 ft 0 kts 75°
2026-05-05 20:13 52.17092 20.97050 333 ft 4 kts 76°
2026-05-05 20:14 52.17085 20.97008 333 ft 4 kts 70°
2026-05-05 20:14 52.17077 20.96967 335 ft 4 kts 78°
2026-05-05 20:14 52.17075 20.96926 338 ft 4 kts 110°
2026-05-05 20:14 52.17084 20.96904 334 ft 1 kts 151°
2026-05-05 20:15 52.17087 20.96901 334 ft 0 kts 151°
2026-05-05 20:18 52.17086 20.96902 334 ft 1 kts 151°
2026-05-05 20:19 52.17074 20.96914 337 ft 4 kts 151°
2026-05-05 20:19 52.17034 20.96949 338 ft 9 kts 151°
2026-05-05 20:19 52.16965 20.97009 338 ft 13 kts 152°
2026-05-05 20:19 52.16879 20.97083 338 ft 14 kts 152°
2026-05-05 20:20 52.16790 20.97161 338 ft 15 kts 151°
2026-05-05 20:20 52.16698 20.97243 338 ft 15 kts 152°
2026-05-05 20:20 52.16604 20.97325 339 ft 14 kts 152°
2026-05-05 20:20 52.16567 20.97394 337 ft 8 kts 111°
2026-05-05 20:21 52.16539 20.97497 335 ft 13 kts 115°
2026-05-05 20:21 52.16498 20.97642 336 ft 14 kts 114°
2026-05-05 20:21 52.16454 20.97792 336 ft 15 kts 127°
2026-05-05 20:21 52.16392 20.97788 339 ft 8 kts 206°
2026-05-05 20:22 52.16347 20.97752 339 ft 7 kts 206°
2026-05-05 20:22 52.16302 20.97703 335 ft 8 kts 245°
2026-05-05 20:22 52.16320 20.97618 334 ft 8 kts 295°
2026-05-05 20:22 52.16325 20.97600 338 ft 4 kts 295°
2026-05-05 20:23 52.16459 20.97121 338 ft 85 kts 294°
2026-05-05 20:23 52.16798 20.95915 336 ft 148 kts 294°
2026-05-05 20:23 52.17252 20.94290 811 ft 154 kts 294°
2026-05-05 20:23 52.17695 20.92739 1495 ft 150 kts 296°
2026-05-05 20:24 52.18137 20.91117 1921 ft 167 kts 289°
2026-05-05 20:24 52.18222 20.89135 2218 ft 188 kts 263°
2026-05-05 20:24 52.18106 20.86875 2504 ft 213 kts 263°
2026-05-05 20:24 52.17981 20.84330 2883 ft 238 kts 265°
2026-05-05 20:25 52.18203 20.81524 3479 ft 258 kts 281°
2026-05-05 20:25 52.18606 20.78691 4427 ft 261 kts 278°
2026-05-05 20:25 52.18636 20.75757 5372 ft 260 kts 261°
2026-05-05 20:25 52.18424 20.72821 6360 ft 262 kts 260°
2026-05-05 20:26 52.18205 20.69863 7289 ft 264 kts 260°
2026-05-05 20:26 52.17980 20.66873 8203 ft 267 kts 260°
2026-05-05 20:26 52.17752 20.63850 9126 ft 270 kts 261°
2026-05-05 20:26 52.17521 20.60792 10030 ft 274 kts 261°
2026-05-05 20:27 52.17281 20.57610 10439 ft 295 kts 261°
2026-05-05 20:27 52.17027 20.54236 10904 ft 310 kts 261°
2026-05-05 20:27 52.16763 20.50716 11657 ft 315 kts 261°
2026-05-05 20:27 52.16496 20.47150 12473 ft 319 kts 261°
2026-05-05 20:28 52.16223 20.43549 13290 ft 322 kts 260°
2026-05-05 20:28 52.15945 20.39911 14021 ft 325 kts 260°
2026-05-05 20:28 52.15662 20.36233 14706 ft 330 kts 261°
2026-05-05 20:28 52.15374 20.32505 15354 ft 334 kts 261°
2026-05-05 20:29 52.15081 20.28723 16009 ft 339 kts 261°
2026-05-05 20:29 52.14786 20.24945 16639 ft 343 kts 261°
2026-05-05 20:29 52.14483 20.21059 17280 ft 348 kts 261°
2026-05-05 20:29 52.14176 20.17126 17927 ft 353 kts 261°
2026-05-05 20:30 52.13864 20.13140 18497 ft 357 kts 261°
2026-05-05 20:30 52.13547 20.09116 19078 ft 360 kts 261°
2026-05-05 20:30 52.13225 20.05061 19686 ft 363 kts 261°
2026-05-05 20:30 52.12895 20.00975 20318 ft 365 kts 261°
2026-05-05 20:31 52.12564 19.96928 20926 ft 367 kts 261°
2026-05-05 20:31 52.12227 19.92798 21516 ft 370 kts 261°
2026-05-05 20:31 52.11889 19.88631 22104 ft 373 kts 261°
2026-05-05 20:31 52.11549 19.84432 22693 ft 376 kts 261°
2026-05-05 20:32 52.11205 19.80205 23260 ft 379 kts 261°
2026-05-05 20:32 52.10855 19.75938 23752 ft 382 kts 261°
2026-05-05 20:32 52.10503 19.71645 24224 ft 384 kts 261°
2026-05-05 20:32 52.10146 19.67333 24688 ft 386 kts 261°
2026-05-05 20:33 52.09788 19.63051 25144 ft 388 kts 261°
2026-05-05 20:33 52.09422 19.58687 25578 ft 391 kts 261°
2026-05-05 20:33 52.08139 19.43531 27051 ft 400 kts 261°
2026-05-05 20:33 52.06596 19.25446 28742 ft 408 kts 261°
2026-05-05 20:34 52.04971 19.06973 30275 ft 417 kts 261°
2026-05-05 20:34 52.03294 18.88204 31634 ft 422 kts 261°
2026-05-05 20:34 52.01606 18.69537 33573 ft 414 kts 261°
2026-05-05 20:34 51.99917 18.51203 35137 ft 409 kts 261°
2026-05-05 20:35 51.98209 18.33011 36447 ft 406 kts 261°
2026-05-05 20:35 51.96494 18.15207 37609 ft 404 kts 260°
2026-05-05 20:35 51.94735 17.97199 37889 ft 398 kts 260°
2026-05-05 20:36 51.91179 17.61445 37703 ft 403 kts 260°
2026-05-05 20:36 51.89360 17.43565 37824 ft 399 kts 260°
2026-05-05 20:36 51.87500 17.25764 37904 ft 401 kts 259°
2026-05-05 20:36 51.85639 17.07983 37736 ft 404 kts 259°
2026-05-05 20:37 51.83737 16.90211 37745 ft 399 kts 259°
2026-05-05 20:37 51.81812 16.72531 37926 ft 397 kts 259°
2026-05-05 20:37 51.79864 16.54889 37797 ft 400 kts 258°
2026-05-05 20:38 51.75938 16.19857 37840 ft 399 kts 258°
2026-05-05 20:38 51.71865 15.84672 37830 ft 398 kts 258°
2026-05-05 20:39 51.67701 15.49653 37818 ft 397 kts 257°
2026-05-05 20:39 51.63473 15.14972 37809 ft 398 kts 257°
2026-05-05 20:40 51.59108 14.80049 37815 ft 399 kts 257°
2026-05-05 20:40 51.54255 14.45326 37803 ft 398 kts 255°
2026-05-05 20:41 51.49320 14.10690 37783 ft 398 kts 255°
2026-05-05 20:41 51.44264 13.76179 37781 ft 398 kts 254°
2026-05-05 20:42 51.39143 13.41921 37782 ft 398 kts 254°
2026-05-05 20:42 51.33876 13.07431 37801 ft 399 kts 253°
2026-05-05 20:43 51.28504 12.72960 37800 ft 400 kts 253°
2026-05-05 20:43 51.23004 12.38532 37822 ft 400 kts 252°
2026-05-05 20:44 51.17423 12.04134 37793 ft 401 kts 251°
2026-05-05 20:44 51.11714 11.69849 37790 ft 405 kts 251°
2026-05-05 20:45 51.02855 11.17747 37777 ft 409 kts 251°
2026-05-05 20:45 50.96757 10.82838 37799 ft 412 kts 251°
2026-05-05 20:46 50.90002 10.48202 37763 ft 406 kts 233°
2026-05-05 20:46 50.81136 10.38097 37792 ft 398 kts 200°
2026-05-05 20:46 50.70820 10.31521 37798 ft 401 kts 201°
2026-05-05 20:47 50.62655 10.20144 37821 ft 415 kts 239°
2026-05-05 20:47 50.57638 10.05589 37853 ft 417 kts 238°
2026-05-05 20:47 50.54837 9.97631 37522 ft 415 kts 240°
2026-05-05 20:48 50.53720 9.93439 36943 ft 419 kts 249°
2026-05-05 20:48 50.52915 9.89019 36306 ft 422 kts 251°
2026-05-05 20:48 50.52118 9.84557 35665 ft 425 kts 250°
2026-05-05 20:48 50.51317 9.80089 35165 ft 425 kts 250°
2026-05-05 20:49 50.50515 9.75626 34731 ft 424 kts 250°
2026-05-05 20:49 50.49730 9.71237 34290 ft 423 kts 250°
2026-05-05 20:49 50.48953 9.66791 33843 ft 421 kts 250°
2026-05-05 20:49 50.48192 9.62361 33352 ft 420 kts 250°
2026-05-05 20:50 50.47442 9.57942 32868 ft 418 kts 251°
2026-05-05 20:50 50.46669 9.53554 32392 ft 416 kts 250°
2026-05-05 20:50 50.45863 9.49207 31925 ft 414 kts 250°
2026-05-05 20:50 50.45039 9.44892 31448 ft 412 kts 249°
2026-05-05 20:51 50.44211 9.40599 31001 ft 410 kts 250°
2026-05-05 20:51 50.43398 9.36379 30572 ft 409 kts 250°
2026-05-05 20:51 50.42575 9.32115 30152 ft 408 kts 250°
2026-05-05 20:51 50.41759 9.27867 29717 ft 406 kts 250°
2026-05-05 20:52 50.40943 9.23659 29034 ft 402 kts 249°
2026-05-05 20:52 50.40060 9.19530 28310 ft 397 kts 247°
2026-05-05 20:52 50.39127 9.15493 27628 ft 391 kts 246°
2026-05-05 20:52 50.38178 9.11533 26959 ft 386 kts 246°
2026-05-05 20:53 50.37232 9.07626 26305 ft 381 kts 246°
2026-05-05 20:53 50.36305 9.03767 25660 ft 376 kts 246°
2026-05-05 20:53 50.35397 8.99954 25014 ft 371 kts 247°
2026-05-05 20:53 50.34520 8.96239 24377 ft 367 kts 247°
2026-05-05 20:54 50.33648 8.92519 23745 ft 362 kts 247°
2026-05-05 20:54 50.32789 8.88848 23075 ft 357 kts 248°
2026-05-05 20:54 50.31802 8.85331 22364 ft 348 kts 233°
2026-05-05 20:54 50.30103 8.82775 21832 ft 337 kts 207°
2026-05-05 20:55 50.27936 8.81653 21248 ft 326 kts 183°
2026-05-05 20:55 50.25719 8.82133 20563 ft 323 kts 158°
2026-05-05 20:55 50.23860 8.84050 19874 ft 324 kts 134°
2026-05-05 20:55 50.22687 8.87041 19200 ft 328 kts 109°
2026-05-05 20:56 50.22433 8.90526 18537 ft 332 kts 84°
2026-05-05 20:56 50.23054 8.94003 17811 ft 335 kts 71°
2026-05-05 20:56 50.23848 8.97432 17078 ft 335 kts 71°
2026-05-05 20:56 50.24653 9.00841 16429 ft 333 kts 70°